Tucson, Arizona, United States (85701)
Lat: 32.22N, Lon: 110.93W
Wx Zone: AZZ504
Local Info
Past Weather Observations for Wednesday, August 20, 2014

NOTE: This archive is for the closest National Weather Service station to Tucson. Information may differ from the station used for current weather conditions.

Click here for Long-term Archive

Time Weather Temperature Dewpoint Humidity Pressure Winds Precip Visibility
23:58
Partly Cloudy
79°F / 26°C 61°F / 16°C 54% 30.01 in
(1016 mb)
Calm - 10SM
22:58
Clear
79°F / 26°C 63°F / 17°C 58% 30.01 in
(1016 mb)
SW 3.5 mph
(SW 6 kph)
- 10SM
21:58
Partly Cloudy
81°F / 27°C 61°F / 16°C 51% 30.01 in
(1016 mb)
W 5.8 mph
(W 9 kph)
- 10SM
20:58
Mostly Cloudy
81°F / 27°C 61°F / 16°C 51% 29.98 in
(1015 mb)
SSW 9.2 mph
(SSW 15 kph)
- 10SM
19:58
Partly Cloudy
82°F / 28°C 55°F / 13°C 40% 29.95 in
(1014 mb)
S 9.2 mph
(S 15 kph)
- 10SM
18:58
Clear
86°F / 30°C 54°F / 12°C 33% 29.92 in
(1013 mb)
S 9.2 mph
(S 15 kph)
- 10SM
17:58
Clear
86°F / 30°C 54°F / 12°C 33% 29.92 in
(1013 mb)
SSE 10.4 mph
(SSE 17 kph)
- 10SM
16:58
Partly Cloudy
90°F / 32°C 54°F / 12°C 29% 29.92 in
(1013 mb)
S 9.2 mph
(S 15 kph)
- 10SM
15:58
Clear
86°F / 30°C 55°F / 13°C 35% 29.95 in
(1014 mb)
SSE 15 mph
(SSE 24 kph)
- 10SM
14:58
Partly Cloudy
90°F / 32°C 54°F / 12°C 29% 29.95 in
(1014 mb)
N 2.3 mph
(N 4 kph)
- 10SM
13:58
Clear
88°F / 31°C 55°F / 13°C 33% 29.98 in
(1015 mb)
Variable 1.2 mph
(Variable 2 kph)
- 10SM
12:58
Clear
86°F / 30°C 57°F / 14°C 38% 30.01 in
(1016 mb)
Variable 5.8 mph
(Variable 9 kph)
- 10SM
11:58
Clear
84°F / 29°C 61°F / 16°C 45% 30.01 in
(1016 mb)
SW 3.5 mph
(SW 6 kph)
- 10SM
10:58
Clear
82°F / 28°C 61°F / 16°C 48% 30.04 in
(1017 mb)
E 2.3 mph
(E 4 kph)
- 10SM
09:58
Clear
79°F / 26°C 64°F / 18°C 61% 30.04 in
(1017 mb)
Variable 5.8 mph
(Variable 9 kph)
- 10SM
08:58
Clear
77°F / 25°C 64°F / 18°C 65% 30.04 in
(1017 mb)
SSE 4.6 mph
(SSE 7 kph)
- 10SM
07:58
Clear
77°F / 25°C 64°F / 18°C 65% 30.01 in
(1016 mb)
SE 4.6 mph
(SE 7 kph)
- 10SM
06:58
Clear
72°F / 22°C 64°F / 18°C 78% 30.01 in
(1016 mb)
SE 4.6 mph
(SE 7 kph)
- 10SM
05:58
Clear
68°F / 20°C 64°F / 18°C 88% 30.01 in
(1016 mb)
E 5.8 mph
(E 9 kph)
- 10SM
04:58
Clear
68°F / 20°C 64°F / 18°C 88% 29.98 in
(1015 mb)
SE 6.9 mph
(SE 11 kph)
- 10SM
03:58
Clear
70°F / 21°C 64°F / 18°C 83% 29.98 in
(1015 mb)
ESE 4.6 mph
(ESE 7 kph)
- 10SM
02:58
Clear
70°F / 21°C 63°F / 17°C 78% 29.98 in
(1015 mb)
SE 8.1 mph
(SE 13 kph)
- 10SM
01:58
Partly Cloudy
72°F / 22°C 64°F / 18°C 78% 29.98 in
(1015 mb)
SE 9.2 mph
(SE 15 kph)
- 10SM
00:58
Clear
72°F / 22°C 64°F / 18°C 78% 29.98 in
(1015 mb)
E 5.8 mph
(E 9 kph)
- 10SM
Time Weather Temperature Dewpoint Humidity Pressure Winds Precip Visibility


Weather for websites

WeatherForYou.com, LLC is not responsible for any damages or problems caused by this service. Current weather conditions are obtained from the closest station including government and personal stations which may have varying degrees of accuracy. Weather forecasts are derived from the NOAA NDFD. Like all things, this site belongs to Jesus Christ... He just trusts me to maintain it. If you have any questions or comments email webmaster@weatherforyou.com

Copyright © 2014, WeatherForYou.com LLC. All rights reserved.